SCP
0 0 0 0 0 0 0 0 0 0 0 0 0 0 0 0 0 0 0 0 0 0 0 0 0 0 0 0 0 0 0 0 0 0 0 0 0 0 0 0 0 0 0
0 0 0 0 0 0 0 0 0 0 0 0 0 0 0 0 0 0 0 0 0 0 0 0 0 0 0 0 0 0 0 0 0 0 0 0 0 0 0 0 0 0 0
0 0 0 0 0 0 0 0 0 0 0 0 0 0 0 0 0 0 0 0 0 0 0 0 0 0 0 0 0 0 0 0 0 0 0 0 0 0 0 0 0 0 0
0 0 0 0 0 0 0 0 0 0 0 0 0 0 0 0 0 0 0 0 0 0 0 0 0 0 0 0 0 0 0 0 0 0 0 0 0 0 0 0 0 0 0
0 0 0 0 0 0 0 0 0 0 0 0 0 0 0 0 0 0 0 0 0 0 0 0 0 0 0 0 0 0 0 0 0 0 0 0 0 0 0 0 0 0 0
0 0 0 0 0 0 0 0 0 0 0 0 0 0 0 0 0 0 0 0 0 0 0 0 0 0 0 0 0 0 0 0 0 0 0 0 0 0 0 0 0 0 0
0 0 0 0 0 0 0 0 0 0 0 0 0 0 0 0 0 0 0 0 0 0 0 0 0 0 0 0 0 0 0 0 0 0 0 0 0 0 0 0 0 0 0
0 0 0 0 0 0 0 0 0 0 0 0 0 0 0 0 0 0 0 0 0 0 0 0 0 0 0 0 0 0 0 0 0 0 0 0 0 0 0 0 0 0 0
0 0 0 0 0 0 0 0 0 0 0 0 0 0 0 0 0 0 0 0 0 0 0 0 0 0 0 0 0 0 0 0 0 0 0 0 0 0 0 0 0 0 0
0 0 0 0 0 0 0 0 0 0 0 0 0 0 0 0 0 0 0 0 0 0 0 0 0 0 0 0 0 0 0 0 0 0 0 0 0 0 0 0 0 0 0
0 0 0 0 0 0 0 0 0 0 0 0 0 0 0 0 0 0 0 0 0 0 0 0 0 0 0 0 0 0 0 0 0 0 0 0 0 0 0 0 0 0 0
0 0 0 0 0 0 0 0 0 0 0 0 0 0 0 0 0 0 0 0 0 0 0 0 0 0 0 0 0 0 0 0 0 0 0 0 0 0 0 0 0 0 0
0 0 0 0 0 0 0 0 0 0 0 0 0 0 0 0 0 0 0 0 0 0 0 0 0 0 0 0 0 0 0 0 0 0 0 0 0 0 0 0 0 0 0
0 0 0 0 0 0 0 0 0 0 0 0 0 0 0 0 0 0 0 0 0 0 0 0 0 0 0 0 0 0 0 0 0 0 0 0 0 0 0 0 0 0 0
0 0 0 0 0 0 0 0 0 0 0 0 0 0 0 0 0 0 0 0 0 0 0 0 0 0 0 0 0 0 0 0 0 0 0 0 0 0 0 0 0 0 0
0 0 0 0 0 0 0 0 0 0 0 0 0 0 0 0 0 0 0 0 0 0 0 0 0 0 0 0 0 0 0 0 0 0 0 0 0 0 0 0 0 0 0
0 0 0 0 0 0 0 0 0 0 0 0 0 0 0 0 0 0 0 0 0 0 0 0 0 0 0 0 0 0 0 0 0 0 0 0 0 0 0 0 0 0 0
0 0 0 0 0 0 0 0 0 0 0 0 0 0 0 0 0 0 0 0 0 0 0 0 0 0 0 0 0 0 0 0 0 0 0 0 0 0 0 0 0 0 0
0 0 0 0 0 0 0 0 0 0 0 0 0 0 0 0 0 0 0 0 0 0 0 0 0 0 0 0 0 0 0 0 0 0 0 0 0 0 0 0 0 0 0
0 0 0 0 0 0 0 0 0 0 0 0 0 0 0 0 0 0 0 0 0 0 0 0 0 0 0 0 0 0 0 0 0 0 0 0 0 0 0 0 0 0 0
0 0 0 0 0 0 0 0 0 0 0 0 0 0 0 0 0 0 0 0 0 0 0 0 0 0 0 0 0 0 0 0 0 0 0 0 0 0 0 0 0 0 0
0 0 0 0 0 0 0 0 0 0 0 0 0 0 0 0 0 0 0 0 0 0 0 0 0 0 0 0 0 0 0 0 0 0 0 0 0 0 0 0 0 0 0
0 0 0 0 0 0 0 0 0 0 0 0 0 0 0 0 0 0 0 0 0 0 0 0 0 0 0 0 0 0 0 0 0 0 0 0 0 0 0 0 0 0 0
0 0 0 0 0 0 0 0 0 0 0 0 0 0 0 0 0 0 0 0 0 0 0 0 0 0 0 0 0 0 0 0 0 0 0 0 0 0 0 0 0 0 0
0 0 0 0 0 0 0 0 0 0 0 0 0 0 0 0 0 0 0 0 0 0 0 0 0 0 0 0 0 0 0 0 0 0 0 0 0 0 0 0 0 0 0
0 0 0 0 0 0 0 0 0 0 0 0 0 0 0 0 0 0 0 0 0 0 0 0 0 0 0 0 0 0 0 0 0 0 0 0 0 0 0 0 0 0 0
Wind_Speed
5 7 10 8 10 10 11 11 12 13 13 13 13 13 12 13 13 13 14 14 14 14 14 14 14 14 15 15 15 15 15 15 16 16 16 16 15 14 13 12 11 11 14
6 8 10 10 10 10 11 12 12 13 13 13 13 13 12 12 13 13 13 14 14 14 14 14 14 14 15 15 15 15 15 15 15 15 15 15 15 13 12 10 8 10 13
7 8 10 10 10 10 11 11 12 12 13 13 13 13 13 13 13 13 13 14 14 14 14 14 14 14 14 14 14 14 14 14 14 14 12 11 13 12 11 11 12 13 12
7 8 10 11 10 10 11 11 11 12 12 12 13 13 13 13 13 13 13 13 14 14 14 14 14 14 14 14 14 14 13 13 12 10 8 9 10 12 11 11 12 12 12
7 8 11 9 10 10 10 11 11 11 12 12 12 12 13 13 13 13 13 13 13 14 14 14 14 14 14 13 13 13 12 11 9 7 9 9 9 12 11 11 11 11 12
8 9 12 9 11 10 10 10 10 11 11 11 11 12 12 12 12 13 13 13 13 13 13 13 13 13 13 12 12 12 11 9 8 8 8 8 9 11 10 10 10 11 11
9 9 11 10 10 10 10 10 10 10 10 11 11 11 11 12 12 13 13 13 13 12 12 12 12 11 11 11 11 10 9 6 5 8 7 7 9 9 10 10 9 9 10
8 9 10 10 9 10 10 10 10 10 10 10 10 11 11 11 12 12 12 12 12 11 11 12 11 11 11 10 10 9 7 4 7 8 7 8 9 9 9 9 9 9 9
7 8 7 8 9 9 9 10 10 10 10 10 10 10 10 11 11 11 11 11 11 11 11 11 12 11 11 10 10 9 6 2 4 6 7 7 9 9 9 8 8 8 8
7 6 7 7 7 7 9 10 9 10 10 10 9 9 9 10 10 10 10 11 11 10 10 10 11 11 10 10 9 8 6 4 5 6 5 8 10 9 8 8 8 8 8
6 5 5 7 6 6 8 9 8 9 8 7 7 7 5 5 7 8 10 10 10 9 9 9 9 9 8 9 8 7 6 2 5 4 5 10 9 8 8 7 7 8 8
6 6 5 5 6 6 6 5 4 5 6 5 5 5 4 5 5 7 9 8 8 8 8 8 7 7 5 5 7 6 3 3 3 4 6 10 8 8 7 7 7 8 8
6 5 6 5 4 5 4 4 3 3 4 5 5 4 4 3 4 4 3 5 5 5 4 6 5 3 3 3 2 2 2 2 2 3 7 9 7 7 7 7 7 7 7
5 5 5 5 4 3 3 3 3 3 3 3 4 3 3 3 3 3 2 2 2 2 3 2 2 3 3 2 2 2 2 1 2 2 7 9 7 7 7 7 7 7 7
5 5 5 4 4 3 2 2 3 3 3 4 3 3 3 2 3 3 2 2 2 2 2 2 2 2 2 2 2 2 2 2 3 3 5 9 7 6 6 7 7 7 7
5 5 5 4 4 3 2 2 2 2 2 2 2 3 2 2 2 2 2 1 1 1 2 1 2 1 1 1 1 1 1 2 3 3 4 7 8 7 6 6 6 7 7
4 4 4 3 3 3 2 2 2 1 2 2 2 2 2 2 2 1 1 1 2 2 2 1 1 1 1 2 1 2 2 2 3 3 3 3 6 8 8 7 6 7 7
4 4 3 3 4 3 2 1 1 0 1 1 1 2 2 1 1 1 1 1 1 1 1 1 1 1 1 1 1 1 2 2 2 3 3 3 3 4 8 8 7 6 7
4 4 3 2 3 3 3 2 2 1 1 1 1 1 2 1 1 1 0 1 1 1 1 1 1 1 1 0 1 2 1 2 2 2 2 3 3 3 3 7 8 6 7
4 4 3 3 3 3 3 3 2 2 2 1 1 1 1 1 1 1 1 1 1 0 0 1 0 0 1 1 1 1 1 1 1 2 3 3 3 4 4 4 5 6 7
5 5 4 4 3 3 2 2 2 2 1 1 1 1 1 1 1 1 1 1 1 0 1 1 1 1 1 1 1 2 2 2 1 1 2 2 2 3 3 3 3 2 5
6 6 6 5 5 4 2 2 1 1 1 1 0 1 1 2 2 2 1 1 1 1 1 1 2 2 1 1 2 2 2 2 2 1 2 2 1 2 3 3 2 2 2
8 7 6 6 5 5 4 3 2 2 3 2 2 2 1 1 1 1 2 2 1 2 1 2 2 2 2 2 2 2 1 1 1 2 1 1 0 0 1 2 1 1 2
8 8 7 6 6 5 5 4 4 3 2 1 1 1 1 1 2 2 2 2 2 2 1 3 2 2 3 2 1 2 2 2 1 1 1 1 1 0 1 1 1 1 1
8 8 7 7 6 6 5 4 4 4 2 2 1 1 2 2 2 3 2 2 2 2 2 2 1 2 2 2 2 2 2 2 3 2 1 1 1 0 1 1 1 1 1
8 8 8 7 7 6 6 5 5 4 3 3 3 2 2 2 2 3 3 3 3 3 2 2 3 3 2 2 3 2 2 2 2 2 2 2 1 0 1 1 0 1 1
Wind_Direction
63 67 73 72 77 78 80 85 91 94 97 97 97 99 100 101 103 104 103 103 103 107 112 112 111 110 112 113 114 115 117 117 117 117 118 118 119 122 125 129 138 120 121
68 71 77 76 82 81 81 84 92 95 97 97 97 98 99 99 102 106 105 107 107 107 107 107 108 108 109 111 113 116 117 119 120 121 124 124 121 121 124 123 113 114 126
71 76 81 73 79 82 81 83 92 94 97 98 96 97 99 99 101 106 106 108 109 110 109 106 107 109 110 111 112 114 115 118 121 128 139 128 120 119 119 115 114 121 127
75 76 72 74 76 81 83 84 90 93 96 97 97 96 97 98 97 102 103 108 110 111 109 107 107 109 109 111 111 112 113 116 124 141 130 115 120 121 122 119 120 126 128
80 79 78 70 77 82 83 85 89 91 94 96 97 95 96 98 97 97 100 105 109 111 110 108 107 107 109 110 112 112 114 120 136 141 109 116 115 123 126 126 126 127 130
85 83 82 70 76 79 81 85 91 93 92 92 93 93 94 97 97 98 98 102 107 109 108 109 110 109 111 112 113 114 118 132 155 112 114 117 115 123 126 126 126 128 130
86 84 88 77 78 79 80 90 93 93 93 92 90 91 96 97 97 96 96 99 99 100 104 108 109 110 112 112 113 114 122 149 122 110 115 110 109 125 129 129 129 129 131
86 87 94 91 80 81 82 91 94 93 91 92 91 91 93 97 97 97 99 100 99 99 102 107 106 105 111 114 116 117 126 162 122 115 117 114 116 130 131 131 132 131 132
82 86 92 102 104 98 88 86 92 91 89 87 86 85 90 99 102 101 100 102 102 101 102 106 106 106 108 111 115 119 125 157 120 115 119 116 124 133 134 134 135 136 138
87 87 93 85 89 104 107 98 92 91 91 89 86 83 94 111 115 115 109 100 101 102 103 106 109 111 113 114 117 123 140 194 121 116 114 116 130 139 142 143 143 144 147
94 88 90 99 101 99 98 105 114 110 102 110 104 98 99 94 100 112 92 98 100 101 104 106 111 116 125 130 129 140 175 161 112 107 105 114 136 145 150 153 153 153 156
108 103 93 89 102 102 96 105 107 102 96 85 78 82 82 80 77 92 104 109 105 111 121 117 125 147 165 134 139 172 168 129 125 122 110 123 140 151 157 160 160 161 162
115 108 106 94 74 91 104 105 93 92 96 97 88 87 85 87 92 96 105 122 123 133 120 127 154 128 106 101 132 146 122 128 128 126 122 136 150 159 164 164 166 169 172
120 112 113 114 107 82 82 99 111 105 98 89 91 77 78 73 80 83 79 81 95 94 92 99 96 88 87 111 121 122 135 146 123 117 122 142 155 164 170 170 172 175 175
131 131 127 122 114 110 99 90 93 83 88 88 80 79 81 91 87 88 83 68 72 80 108 100 94 103 117 124 116 120 134 139 136 146 131 146 160 170 175 177 178 181 180
145 141 139 143 128 127 125 103 86 97 101 93 85 79 81 89 89 98 116 98 81 74 63 78 99 114 119 110 126 124 144 151 142 155 150 150 164 175 181 185 185 185 187
147 140 149 152 141 145 152 153 135 142 134 108 98 103 110 115 111 134 119 134 88 88 102 107 90 114 141 144 142 140 141 146 145 157 164 162 164 175 186 192 193 196 197
154 149 160 167 147 156 160 164 155 141 106 121 123 122 117 115 146 187 140 99 98 139 131 126 146 114 116 143 134 136 135 150 161 168 172 176 176 166 174 187 197 204 206
163 160 166 169 160 170 174 181 188 174 205 206 157 140 128 155 165 209 126 94 212 176 154 179 87 308 157 164 171 156 150 155 159 164 166 173 175 188 178 165 188 203 212
173 175 181 182 183 187 186 187 198 185 190 187 158 123 163 181 185 231 193 170 259 200 139 59 51 304 262 236 215 122 142 140 171 165 192 182 182 192 200 185 185 193 203
184 187 190 197 191 206 208 212 196 186 193 179 176 167 196 220 211 254 281 168 233 192 248 227 237 201 213 194 210 171 148 147 142 177 201 203 181 189 200 209 220 213 186
191 193 192 195 195 206 204 234 234 260 241 218 205 141 223 233 244 230 242 239 205 191 206 226 242 253 224 215 258 237 186 163 164 137 172 191 196 194 193 196 200 218 254
196 196 197 197 194 202 199 204 199 204 226 203 192 188 217 241 249 270 258 263 249 232 195 210 225 245 257 236 266 285 276 163 145 137 117 112 98 357 210 132 163 177 210
199 194 195 192 193 193 196 209 214 229 242 251 246 195 206 242 253 249 252 246 250 252 222 231 197 236 258 256 225 271 302 339 263 170 169 123 108 131 35 18 103 145 178
196 190 187 188 190 191 196 196 214 229 229 224 229 209 255 245 251 254 244 241 239 246 248 267 250 251 245 266 270 255 239 222 244 237 221 188 163 88 94 86 40 40 53
190 188 185 181 189 189 195 199 211 226 238 245 245 239 233 223 231 242 243 242 244 248 235 240 242 231 251 263 272 264 251 246 237 234 228 221 192 151 98 79 92 98 102